Probability
0 0 0 0 0 0 0 0 0 0 0 0 0 0 0 0 0 0 0 0 0 0 0 0 0 1 2 1 1 3 5 7 6 5 2 0 0 0 0 0 0 0 0 0 0 0 0 1 1
0 0 0 0 0 0 0 0 0 0 0 0 0 0 0 0 0 0 0 0 0 0 0 0 0 1 1 1 1 3 4 5 5 4 2 1 1 0 0 0 0 0 0 0 0 0 0 0 1
0 0 0 0 0 0 0 0 0 0 0 0 0 0 0 0 0 0 0 0 0 0 0 0 0 0 0 0 1 2 3 3 3 3 2 2 1 1 1 1 0 0 0 0 0 0 0 0 0
0 0 0 0 0 0 0 0 0 0 0 0 0 0 0 0 0 0 0 0 0 0 0 0 0 0 0 0 1 2 2 1 1 1 1 1 1 1 2 2 1 0 0 0 0 0 0 0 0
0 0 0 0 0 0 0 0 0 0 0 0 0 0 0 0 0 0 0 0 0 0 0 0 0 0 0 0 0 1 1 0 0 0 0 0 0 1 1 2 1 0 0 0 0 0 0 0 0
0 0 0 0 0 0 0 0 0 0 0 0 0 0 0 0 0 0 0 0 0 0 0 0 0 0 0 0 0 0 0 0 0 0 0 0 0 0 0 1 1 0 0 0 0 0 0 0 0
0 0 0 0 0 0 0 0 0 0 0 0 0 0 0 0 0 0 0 0 0 0 0 0 0 0 0 0 0 0 0 0 0 0 0 0 0 0 0 0 0 0 0 0 0 0 0 0 0
0 0 0 0 0 0 0 0 0 0 0 0 0 0 0 0 0 0 0 0 0 0 0 0 0 0 0 0 0 0 0 0 0 0 0 0 0 0 0 0 0 0 0 0 0 0 0 0 0
0 0 0 0 0 0 0 0 0 0 0 0 0 0 0 0 0 0 0 0 0 0 0 0 0 0 0 0 0 0 0 0 0 0 0 0 0 0 0 0 0 0 0 0 0 0 0 0 0
0 0 0 0 0 0 0 0 0 0 0 0 0 0 0 0 0 0 1 1 1 0 0 0 0 0 0 0 0 0 0 0 0 0 0 0 0 0 0 0 0 0 0 0 0 0 0 0 0
0 0 0 0 0 0 0 0 0 0 0 0 0 0 0 0 0 0 1 2 2 1 1 0 0 0 0 0 0 0 0 0 0 0 0 0 0 0 0 0 0 0 0 0 0 0 0 0 0
0 0 0 0 0 0 0 0 0 0 0 0 0 0 0 0 0 0 0 1 2 2 2 1 0 0 0 0 0 0 0 0 0 0 0 0 0 0 0 0 0 0 0 0 0 0 0 0 0
0 0 0 0 0 0 0 0 0 0 0 0 0 0 0 0 0 0 0 1 2 3 3 2 1 1 0 0 0 0 0 0 0 0 0 0 0 0 0 0 0 0 0 0 0 0 0 0 0
0 0 0 0 0 0 0 0 0 0 0 0 0 0 0 0 0 0 0 1 2 3 3 3 3 2 1 0 0 0 0 0 0 0 0 0 0 0 0 0 0 0 0 0 0 0 0 0 0
0 0 0 0 0 0 0 0 0 0 0 0 0 0 0 0 0 0 0 0 1 2 3 3 3 3 1 1 0 0 0 0 0 0 0 0 0 0 0 0 0 0 0 0 0 0 0 0 0
0 0 0 0 0 0 0 0 0 0 0 0 0 0 0 0 0 0 0 0 0 1 1 2 4 4 3 2 1 0 0 0 0 0 0 0 0 0 0 0 0 0 0 0 0 0 0 0 0
0 0 0 0 0 0 0 0 0 0 0 0 0 0 0 0 0 0 0 0 0 0 0 2 4 5 4 3 1 0 0 0 0 0 0 0 0 0 0 0 0 0 0 0 0 0 0 0 0
0 0 0 0 0 0 0 0 0 0 0 0 0 0 0 0 0 0 0 0 0 0 0 1 4 6 5 4 2 1 0 0 0 0 0 0 0 0 0 0 0 0 0 0 0 0 0 0 0
0 0 0 0 0 0 0 0 0 0 0 0 0 0 0 0 0 0 0 0 0 0 0 1 3 5 6 5 3 1 0 0 0 0 0 0 0 0 0 0 0 0 0 0 0 0 0 0 0
0 0 0 0 0 0 0 0 0 0 0 0 0 0 0 0 0 0 0 0 0 0 0 0 1 4 6 6 4 1 0 0 0 0 0 0 0 0 0 0 0 0 0 0 0 0 0 0 0
0 0 0 0 0 0 0 0 0 0 0 0 0 0 0 0 0 0 0 0 0 0 0 0 1 3 5 6 4 1 0 0 0 0 0 0 0 0 0 0 0 0 0 0 0 0 0 0 0
0 0 0 0 0 0 0 0 0 0 0 0 0 0 0 0 0 0 0 0 0 0 0 0 0 1 3 6 5 2 0 0 0 0 0 0 0 0 0 0 0 0 0 0 0 0 0 0 0
0 0 0 0 0 0 0 0 0 0 0 0 0 0 0 0 0 0 0 0 0 0 0 0 0 0 2 5 5 3 1 0 0 0 0 0 0 0 0 0 0 0 0 0 0 0 0 0 0
0 0 0 0 0 0 0 0 0 0 0 0 0 0 0 0 0 0 0 0 0 0 0 0 0 0 1 3 4 2 1 0 0 0 0 0 0 0 0 0 0 0 0 0 0 0 0 0 0
0 0 0 0 0 0 0 0 0 0 0 0 0 0 0 0 0 0 0 0 0 0 0 0 0 0 0 1 1 1 1 1 0 0 0 0 0 0 0 0 0 0 0 0 0 0 0 0 0
0 0 0 0 0 0 0 0 0 0 0 0 0 0 0 0 0 0 0 0 0 0 0 0 0 0 0 0 0 1 2 2 1 0 0 0 0 0 0 0 0 0 0 0 0 0 0 0 0
0 0 0 0 0 0 0 0 0 0 0 0 0 0 0 0 0 0 0 0 0 0 0 0 0 0 0 0 0 1 2 2 1 0 0 0 0 0 0 0 0 0 0 0 0 0 0 0 0
0 0 0 0 0 0 0 0 0 0 0 0 0 0 0 0 0 0 0 0 0 0 0 0 0 0 0 0 0 0 1 1 0 0 0 0 0 0 0 0 0 0 0 0 0 0 0 0 0
0 0 0 0 0 0 0 0 0 0 0 0 0 0 0 0 0 0 0 0 0 0 0 0 0 0 0 0 0 0 0 0 0 0 0 0 0 0 0 0 0 0 0 0 0 0 0 0 0
0 0 0 0 0 0 0 0 0 0 0 0 0 0 0 0 0 0 0 0 0 0 0 0 0 0 0 0 0 0 0 0 0 0 0 0 0 0 0 0 0 0 0 0 0 0 0 0 0
Wind_Speed
6 3 2 4 6 3 2 3 2 1 1 1 0 1 2 3 3 2 1 2 2 2 2 2 3 5 6 7 7 7 7 7 7 7 7 7 7 7 7 7 7 7 7 7 7 7 8 8 8
2 2 4 5 4 2 4 3 3 3 2 0 1 1 1 1 0 1 1 0 2 3 3 2 3 5 6 6 7 7 6 6 6 7 7 7 6 6 7 7 7 7 7 7 8 7 7 8 8
1 4 4 4 3 5 4 2 4 2 0 1 1 1 0 1 0 1 1 1 3 3 2 2 3 5 6 6 6 6 6 6 6 6 6 6 6 6 7 7 6 7 7 7 8 8 7 7 7
3 4 5 3 4 5 3 1 1 0 1 1 1 1 1 1 1 0 2 3 4 3 2 2 3 5 6 6 5 6 6 6 6 6 5 6 6 6 6 6 6 6 6 7 7 7 7 7 7
4 4 3 1 5 3 2 2 1 1 0 1 1 1 2 1 3 3 3 3 4 3 2 2 3 4 5 5 5 5 5 5 5 5 5 5 6 6 6 6 6 6 6 6 6 6 7 7 6
4 4 3 5 6 3 3 2 1 1 1 1 0 1 2 2 2 2 3 3 3 3 2 2 2 3 4 4 4 4 5 5 5 4 5 5 5 6 5 6 5 6 6 5 6 6 6 7 6
4 3 3 4 4 4 3 2 2 2 2 2 1 1 2 2 1 2 3 3 3 3 3 2 2 2 3 4 4 4 4 4 4 4 4 5 5 5 6 5 5 6 6 6 5 5 5 5 6
4 4 2 3 4 4 2 1 1 2 3 1 1 2 3 2 1 4 4 4 3 3 2 2 2 2 2 2 3 4 4 4 4 5 5 5 5 5 5 5 5 5 6 6 5 5 5 5 5
3 3 5 5 5 3 1 1 0 0 1 1 0 1 2 3 3 4 4 3 2 2 2 2 1 1 1 1 2 2 3 3 4 4 5 4 3 3 3 5 5 6 6 6 6 6 6 5 5
3 4 8 3 3 2 1 1 1 1 1 2 2 2 3 3 3 3 2 1 0 0 1 1 1 1 1 1 2 1 2 2 2 2 3 2 2 3 4 5 5 6 6 6 6 7 6 5 3
3 5 3 2 1 1 1 1 0 2 3 4 3 1 1 2 2 1 0 0 1 0 1 1 1 1 1 1 1 1 1 1 2 2 2 2 3 3 3 2 3 3 5 4 5 5 3 3 2
2 3 2 2 0 0 2 2 1 3 6 2 3 2 2 2 1 1 1 1 1 1 1 1 1 1 1 1 1 1 1 1 1 1 2 2 2 2 2 2 2 2 2 2 2 2 3 3 2
3 3 1 1 1 1 1 3 3 5 5 2 1 2 2 2 2 2 1 1 2 1 2 1 1 1 0 0 1 1 1 1 1 2 2 3 2 2 2 1 1 2 1 2 2 2 2 2 2
1 1 3 3 4 2 3 5 3 8 3 2 1 1 1 2 2 1 2 2 2 2 2 2 1 1 1 0 1 1 1 1 1 2 2 2 2 2 2 1 1 1 1 1 1 1 1 1 1
0 2 4 3 4 3 2 6 7 8 1 2 2 2 1 2 1 2 2 2 2 2 2 1 1 1 1 1 1 1 1 1 1 1 2 2 2 2 2 2 1 1 1 1 1 1 1 1 1
1 1 3 4 2 2 3 10 7 2 3 3 3 2 2 2 2 2 2 2 2 1 1 1 1 1 1 1 1 1 1 1 1 1 1 2 2 2 2 2 1 1 1 1 1 1 1 1 1
1 2 4 5 2 1 4 9 5 1 2 4 4 3 3 3 3 2 2 2 2 1 1 1 1 1 1 2 1 1 1 1 1 1 1 2 2 2 2 2 1 1 1 1 0 1 1 1 1
3 3 4 4 2 1 4 9 8 4 2 5 4 4 3 4 4 2 2 2 2 2 2 2 1 1 1 1 0 1 1 1 1 1 1 2 2 2 2 2 2 2 1 0 0 0 1 0 1
2 3 5 5 2 1 6 10 10 6 3 5 5 4 5 5 3 1 1 2 2 3 2 2 2 2 1 0 1 1 1 1 0 0 0 1 1 2 2 2 2 2 1 1 1 0 0 1 1
1 3 5 5 2 2 5 9 8 5 4 5 5 5 5 4 3 3 2 2 2 1 2 2 1 1 1 1 1 1 1 1 1 0 0 0 1 1 1 2 2 2 1 1 1 1 0 1 0
3 4 5 5 4 2 4 7 5 3 2 2 2 3 3 3 3 3 2 2 2 2 2 2 2 1 1 1 0 1 1 1 0 0 0 0 0 0 1 2 2 2 2 2 2 2 2 1 1
5 4 4 4 2 4 1 6 6 4 4 3 3 3 3 3 2 2 2 3 3 3 2 2 1 1 1 0 0 2 1 1 1 1 1 1 1 1 1 1 2 2 2 2 2 2 2 2 2
4 2 3 3 4 4 2 4 8 3 4 5 4 4 3 3 2 2 2 3 3 3 2 2 1 1 1 1 0 1 0 0 0 0 0 0 1 1 1 1 1 2 2 2 2 2 2 2 2
1 1 1 1 1 5 5 5 8 3 4 4 3 3 3 3 3 3 3 3 3 3 3 2 1 1 1 1 0 0 0 0 1 0 1 1 1 1 1 1 1 2 2 2 2 2 2 3 2
2 3 2 4 2 7 2 4 9 4 3 3 4 4 3 3 2 3 3 3 3 3 3 3 2 2 1 1 0 1 1 1 2 1 1 1 1 1 2 1 1 2 2 2 2 2 2 3 3
2 4 5 4 5 5 2 7 7 2 2 3 3 3 3 3 3 3 3 3 3 3 3 3 2 2 1 1 1 1 0 0 1 1 1 2 2 2 2 2 2 2 2 2 2 2 2 2 3
2 3 2 2 1 3 6 6 7 2 3 3 3 4 3 3 3 4 4 3 3 3 2 2 2 2 1 1 1 1 0 0 1 1 1 1 1 1 2 2 2 2 2 2 2 2 3 2 2
1 3 3 3 2 5 6 5 5 3 4 4 4 3 4 4 4 4 4 4 3 3 2 2 2 2 2 1 1 1 1 1 1 0 1 1 2 2 1 1 2 2 2 2 2 2 2 2 2
2 2 2 2 3 4 5 7 3 3 3 3 4 3 3 3 3 3 3 4 4 4 3 3 2 1 1 1 1 1 1 1 1 1 1 2 2 2 2 2 2 2 2 2 2 2 2 3 2
3 3 4 3 5 4 4 8 1 1 1 2 3 4 3 3 3 3 3 3 3 4 4 4 3 1 1 1 1 1 1 1 1 1 2 2 2 2 2 2 2 2 2 2 3 3 3 3 3
Wind_Direction
354 5 52 57 58 56 227 239 222 256 249 279 342 124 150 158 166 195 6 74 65 132 162 161 130 118 111 112 109 105 102 101 98 93 90 92 94 90 90 90 87 88 88 89 86 85 84 84 86
350 23 53 61 99 195 250 233 220 231 216 57 35 49 84 244 13 93 27 345 102 129 143 151 127 115 111 111 111 110 105 101 101 98 92 91 95 96 93 91 90 88 87 87 84 85 86 85 86
38 51 79 84 145 198 222 218 213 243 292 62 52 25 152 250 320 197 257 129 107 118 116 134 122 119 117 112 115 113 105 100 96 95 93 92 87 94 97 92 91 91 88 85 83 81 83 84 84
73 52 61 91 218 223 224 245 223 247 352 15 125 327 290 346 329 320 99 111 108 109 103 113 111 120 120 114 113 118 108 100 94 90 86 82 81 84 96 94 90 89 88 83 81 80 77 81 84
58 80 82 234 241 240 237 255 202 169 247 349 118 257 288 359 27 80 106 114 120 110 97 107 101 109 114 117 114 110 111 103 94 87 81 78 79 78 80 89 89 85 84 86 79 78 78 77 81
63 74 127 228 243 254 257 241 197 235 259 343 74 224 259 23 48 88 101 102 106 109 94 90 91 94 102 106 107 101 103 104 98 88 79 73 75 74 74 77 78 81 81 84 82 75 83 79 76
112 116 188 217 240 256 245 184 190 212 246 262 252 198 280 345 15 83 80 74 75 84 87 76 61 68 88 90 87 87 90 91 91 83 74 66 67 68 65 64 71 73 72 76 77 74 80 83 75
124 118 195 222 221 247 237 164 177 186 232 276 135 189 264 304 55 84 76 67 63 65 72 74 58 52 58 74 77 76 80 81 76 72 67 62 63 63 63 53 61 71 67 67 68 66 68 69 73
95 107 220 219 202 232 190 129 313 72 101 16 65 228 326 46 84 86 71 58 57 48 40 53 57 51 54 69 72 71 73 76 75 69 66 64 61 60 61 54 58 67 65 60 61 58 59 56 57
107 191 230 225 193 195 201 196 213 41 353 327 331 352 24 68 91 102 99 129 139 357 359 18 48 54 56 68 74 67 65 74 76 68 66 67 70 65 64 61 58 55 57 57 57 55 53 48 38
154 209 226 252 220 201 241 265 226 165 251 239 233 287 38 79 90 99 123 236 251 298 4 352 352 17 83 81 84 77 79 81 83 79 75 82 79 71 64 63 51 46 47 48 47 47 38 38 36
182 245 229 255 310 232 237 254 268 217 233 226 203 170 126 128 166 204 245 285 323 0 319 336 360 360 44 80 117 116 107 112 113 112 103 100 93 83 77 71 60 54 48 53 46 43 32 31 34
220 252 267 277 310 263 279 247 245 258 253 254 74 91 149 167 216 247 278 330 349 325 310 319 351 344 334 136 141 138 137 131 132 126 116 111 113 109 98 88 81 73 63 58 51 40 32 25 20
216 275 287 275 261 254 240 268 250 263 251 228 183 189 211 210 228 301 324 318 316 301 300 316 299 308 310 207 175 173 158 142 128 129 134 128 124 122 119 106 95 79 73 65 62 48 44 15 10
72 330 311 275 243 240 228 285 245 255 223 237 245 238 249 259 279 271 272 274 271 279 296 297 254 287 254 238 219 170 159 146 146 145 141 134 128 136 133 129 114 81 64 69 54 41 46 32 18
18 352 293 289 240 223 182 261 270 267 200 237 256 265 271 282 286 288 304 305 299 292 297 284 282 263 246 237 225 194 165 155 156 149 146 145 144 144 139 135 134 112 92 77 72 51 32 17 359
1 266 264 296 291 205 200 256 292 309 205 248 259 268 275 289 300 303 325 329 331 319 303 297 278 228 244 236 219 195 165 155 145 139 154 158 156 153 148 151 151 133 121 120 99 34 35 348 334
232 238 257 263 298 215 234 259 285 303 264 260 271 275 277 275 278 307 333 343 349 357 359 350 344 330 291 245 177 170 141 150 130 152 169 157 165 163 157 157 151 142 135 121 82 34 13 317 298
214 230 257 266 275 263 250 266 279 290 281 272 270 267 269 270 294 339 348 355 7 13 7 357 360 357 18 89 209 218 218 209 185 184 101 145 157 166 161 157 152 151 166 188 184 152 0 345 341
241 255 269 285 291 249 274 278 276 272 257 248 257 264 266 285 320 331 343 355 351 340 333 336 332 345 330 285 238 231 217 205 197 153 98 134 125 157 170 164 167 173 176 178 175 141 346 313 23
252 230 251 270 315 294 298 292 283 290 289 303 278 271 286 276 287 309 326 317 320 314 304 309 313 324 304 318 11 41 54 48 66 306 264 304 277 172 174 170 169 181 180 196 202 191 180 215 251
258 242 242 261 285 282 274 286 289 294 310 311 304 301 295 305 312 322 332 330 315 294 301 309 309 321 324 316 162 149 166 209 252 245 231 236 204 205 196 184 178 183 194 205 214 198 207 191 202
236 264 238 239 224 276 255 248 283 328 299 296 298 296 298 307 301 305 316 307 311 318 323 313 336 348 349 335 213 181 192 281 346 6 198 234 230 220 218 202 186 189 201 209 215 204 210 206 194
192 26 8 22 123 264 234 210 276 252 253 289 313 309 309 327 332 328 335 343 344 349 351 348 355 347 345 347 4 179 201 128 112 320 229 252 275 259 246 220 208 212 209 210 219 212 214 218 205
61 83 15 348 314 251 191 212 253 251 253 265 293 309 312 325 329 328 334 333 338 347 348 341 338 332 335 335 325 264 238 192 195 211 226 238 259 274 264 249 237 232 223 221 218 211 217 219 212
204 164 170 214 240 274 228 234 250 260 302 299 298 314 337 338 331 319 315 311 316 324 335 337 326 323 330 313 304 315 333 225 260 274 263 241 248 258 269 253 246 241 231 225 209 215 226 223 223
163 209 195 158 291 279 263 274 292 312 319 320 322 335 332 324 323 321 324 319 314 315 317 309 310 310 308 299 319 319 299 285 297 302 306 289 291 280 271 258 255 255 238 220 201 212 222 223 232
153 156 120 154 201 257 274 263 260 282 291 309 318 315 316 328 329 329 328 322 319 315 318 329 310 296 300 305 297 309 298 285 302 327 307 300 302 298 281 280 270 266 242 223 209 212 217 210 232
145 146 165 182 196 203 268 268 229 229 244 262 279 296 307 306 307 309 316 320 329 338 337 328 316 319 323 316 314 327 315 321 323 301 294 288 293 298 288 279 271 265 256 236 221 219 219 214 228
184 183 166 188 242 227 245 266 279 229 280 303 311 324 326 318 318 320 324 330 336 336 336 334 331 333 309 301 307 307 330 344 323 310 315 314 301 293 285 278 258 256 261 256 237 229 227 218 224